Weather History for Abilene, TX

Change the Weather History Date:

Monday, May 26, 2014

  Actual Average Record
Temperature  
Mean Temperature 74 °F 76 °F  
Max Temperature 84 °F 87 °F 99 °F (1896)
Min Temperature 63 °F 64 °F 48 °F (1901)
Degree Days  
Heating Degree Days 0 0  
Month to date heating degree days 24 13  
Since 1 July heating degree days 2821 2555  
Cooling Degree Days 9 11  
Month to date cooling degree days 259 209  
Year to date cooling degree days 459 342  
Growing Degree Days 24 (Base 50)    
Moisture  
Dew Point 60 °F    
Average Humidity 65    
Maximum Humidity 93    
Minimum Humidity 37    
Precipitation  
Precipitation 0.17 in 0.13 in 2.07 in (1914)
Month to date precipitation 2.22 2.55  
Year to date precipitation 3.99 8.31  
Sea Level Pressure  
Sea Level Pressure 29.95 in    
Wind  
Wind Speed 8 mph (ESE)    
Max Wind Speed 23 mph    
Max Gust Speed 28 mph    
Visibility 10 miles    
Events Rain , Thunderstorm    
T = Trace of Precipitation, MM = Missing Value Source: NWS Daily Summary

Daily Weather History Graph

Daily Weather History Graph

Search for Another Location

Airport:

Trip Planner

Search our weather history database for the weather conditions in past years. The results will help you decide how hot, cold, wet, or windy it might be!

Date:

Astronomy

May. 26, 2014 Rise Set
Actual Time 6:34 AM CDT 8:37 PM CDT
Civil Twilight 6:06 AM CDT 9:05 PM CDT
Nautical Twilight 5:33 AM CDT 9:38 PM CDT
Astronomical Twilight 4:57 AM CDT 10:14 PM CDT
Moon 5:09 AM CDT (5/26) 6:48 PM CDT (5/26)
Length of Visible Light 14h 58m
Length of Day
14h 02m
Waning Crescent, 5% of the Moon is Illuminated
May 26
Waning Crescent
May 28
New
Jun 5
First Quarter
Jun 12
Full
Jun 19
Last Quarter

Hourly Weather History & Observations

Time (CDT) Temp. Heat Index Dew Point Humidity Pressure Visibility Wind Dir Wind Speed Gust Speed Precip Events Conditions
12:52 AM 66.0 °F - 62.1 °F 87% 29.96 in 10.0 mi SSE 10.4 mph - N/A   Clear
1:52 AM 66.0 °F - 62.1 °F 87% 29.94 in 10.0 mi SE 11.5 mph - N/A   Clear
2:52 AM 64.9 °F - 62.1 °F 90% 29.94 in 10.0 mi SSE 5.8 mph - N/A   Partly Cloudy
4:52 AM 64.0 °F - 61.0 °F 90% 29.96 in 10.0 mi South 4.6 mph - N/A   Clear
5:15 AM 64.9 °F - 61.0 °F 87% 30.02 in 10.0 mi SSE 3.5 mph - N/A   Mostly Cloudy
5:47 AM 64.4 °F - 60.8 °F 88% 30.03 in 10.0 mi South 3.5 mph - N/A   Overcast
5:52 AM 64.9 °F - 61.0 °F 87% 29.96 in 10.0 mi SSE 4.6 mph - N/A   Overcast
6:09 AM 64.9 °F - 61.0 °F 87% 30.02 in 10.0 mi Calm Calm - N/A   Mostly Cloudy
6:52 AM 63.0 °F - 61.0 °F 93% 29.95 in 10.0 mi SE 6.9 mph - N/A   Clear
7:52 AM 64.9 °F - 60.1 °F 84% 29.92 in 10.0 mi SE 13.8 mph - N/A   Clear
8:52 AM 66.9 °F - 57.9 °F 73% 29.98 in 10.0 mi Calm Calm - N/A   Partly Cloudy
9:52 AM 68.0 °F - 57.9 °F 70% 29.99 in 10.0 mi Calm Calm - N/A   Scattered Clouds
10:52 AM 70.0 °F - 57.9 °F 65% 29.99 in 10.0 mi NE 9.2 mph - N/A   Scattered Clouds
11:13 AM 71.6 °F - 59.0 °F 64% 30.05 in 10.0 mi NE 8.1 mph - N/A   Mostly Cloudy
11:27 AM 71.6 °F - 59.0 °F 64% 30.04 in 10.0 mi East 6.9 mph - N/A   Mostly Cloudy
11:36 AM 71.6 °F - 59.0 °F 64% 30.04 in 10.0 mi East 9.2 mph - N/A   Mostly Cloudy
12:09 PM 73.9 °F - 60.1 °F 62% 30.04 in 10.0 mi NNE 5.8 mph - N/A   Scattered Clouds
12:52 PM 75.9 °F - 61.0 °F 60% 29.96 in 10.0 mi ENE 6.9 mph - N/A   Clear
2:52 PM 81.0 °F 81.7 °F 61.0 °F 50% 29.91 in 10.0 mi Calm Calm - N/A   Partly Cloudy
3:52 PM 82.9 °F 82.8 °F 59.0 °F 44% 29.89 in 10.0 mi SSW 3.5 mph - N/A   Scattered Clouds
6:52 PM 79.0 °F - 55.9 °F 45% 29.85 in 10.0 mi SE 18.4 mph 24.2 mph N/A   Scattered Clouds
7:52 PM 75.9 °F - 57.9 °F 54% 29.89 in 10.0 mi ESE 10.4 mph - N/A   Mostly Cloudy
8:31 PM 73.9 °F - 62.1 °F 66% 29.96 in 10.0 mi East 6.9 mph - 0.00 in Rain , Thunderstorm Thunderstorms and Rain
8:52 PM 71.1 °F - 63.0 °F 75% 29.90 in 7.0 mi ENE 11.5 mph - 0.03 in Rain , Thunderstorm Thunderstorms and Rain
9:10 PM 69.1 °F - 63.0 °F 81% 29.94 in 8.0 mi ESE 20.7 mph - 0.04 in Rain , Thunderstorm Thunderstorms and Rain
10:16 PM 66.9 °F - 63.0 °F 87% 29.93 in 10.0 mi ESE 18.4 mph - 0.03 in Rain , Thunderstorm Thunderstorms and Rain
10:52 PM 66.0 °F - 61.0 °F 84% 29.86 in 10.0 mi SE 9.2 mph - 0.03 in Rain , Thunderstorm Thunderstorms and Rain
11:14 PM 66.0 °F - 60.1 °F 81% 29.95 in 10.0 mi SSE 6.9 mph - 0.00 in   Clear
11:52 PM 66.0 °F - 61.0 °F 84% 29.89 in 10.0 mi SSE 11.5 mph - 0.00 in   Partly Cloudy